Weather in Grachi

Russia / Saratov Oblast     51°59′39″N   48°06′18″E
temp.,
°C
wind,
m/s
gust,
m/s
humid.,
%
clouds,
%
prec.,
mm/h
press.,
hPa
HPBL,
m
12 may, wed
wed1201:00+11ne3793100 0.4 1025241
04:00+12ne41195100 1.5 1023420
07:00+13ne61488100 0.9 1023397
10:00+16e81768100 0.9 1022551
13:00+17ese81673100 0.0 1022789
16:00+20ese6126778 0.1 10221205
19:00+19se497294 0.3 1021246
22:00+16e358045 0.3 102172
13 may, thu
thu1301:00+16ene38786 0.0 1020201
04:00+14e5127985 0.4 1020267
07:00+15e51086100 3.4 1020301
10:00+20ese71368100 4.0 1020645
13:00+24se81347100 0.0 10191571
16:00+27se712435 0.0 10192241
19:00+23se7144820 0.0 1018460
22:00+18se513592 0.0 1019231
14 may, fri
fri1401:00+17sse336961 0.0 102042
04:00+16se347475 0.0 102045
07:00+18ese376551 0.0 1021187
10:00+24sse61137100 0.0 1021601
13:00+28s81130100 0.0 10211342
16:00+28s6103564 0.0 10201533
19:00+25sse510450 0.0 1020227
22:00+19se412535 0.0 1020192
15 may, sat
sat1501:00+18sse4105299 0.0 1020150
04:00+17sse3551100 0.0 102168
07:00+18sse395334 0.0 1021187
10:00+25sse58325 0.0 1021497
13:00+29s78241 0.0 10201498
16:00+30s68245 0.0 10192551
19:00+26sse36450 0.0 1018108
22:00+21se411520 0.0 1018156
16 may, sun
sun1601:00+19sse411543 0.0 1018159
04:00+17sse35560 0.0 101866
07:00+19sse37586 0.0 1018187
10:00+26s58365 0.0 1018613
13:00+30s59275 0.0 10172243
16:00+31ssw57225 0.0 10163602
19:00+28s333843 0.0 101527
22:00+24sse3743100 0.0 1016108